Вернуться в каталог

DUMMY SAT

АктивенНаукаPO
NORAD 40073·PAYLOAD·🇷🇺 Russia

Запущен Jul 8, 2014 с Baikonur Cosmodrome

Loading…

Ближайшие Пролёты (ближайшие 24 часа)

TLE

СвежийSource: Space-Track

Эпоха: Sep 14, 2026, 14:55 UTC

1 40073U 14037E   26257.62197979  .00000237  00000-0  36315-4 0  9995
2 40073  98.3814 212.6590 0006260  34.1570 326.0044 14.83101711658698

Отслеживайте DUMMY SAT в реальном времени с AllMySat

Download on the App Store